EW7337 Weather Reports


time (UTC)temp
F
wind
direction
speed
knots
gust
knots
rain 1hr
in
rain 24hr
in
rain mn
in
humidity
%
barometer
mb
20260507101720 53 277 7.0 10.4 0.00 0.00 0.00 49 1019.8
20260507101542 53 279 4.3 7.8 0.00 0.00 0.00 49 1019.8
20260507100703 53 275 4.3 9.6 0.00 0.00 0.00 48 1019.8
20260507100551 53 270 5.2 9.6 0.00 0.00 0.00 48 1019.6
20260507095704 53 273 5.2 8.7 0.00 0.00 0.00 48 1019.7
20260507095205 53 270 6.1 8.7 0.00 0.00 0.00 48 1019.6
20260507094703 53 234 5.2 13.0 0.00 0.00 0.00 48 1019.6
20260507094203 53 256 6.1 13.0 0.00 0.00 0.00 48 1019.5
20260507093703 53 265 7.0 12.2 0.00 0.00 0.00 47 1019.2
20260507093207 53 238 7.0 12.2 0.00 0.00 0.00 48 1019.1
20260507093052 53 251 7.0 12.2 0.00 0.00 0.00 48 1019.1
20260507092211 53 269 6.1 9.6 0.00 0.00 0.00 48 1019.1
20260507091945 53 279 5.2 10.4 0.00 0.00 0.00 48 1019.0
20260507091836 53 264 6.1 9.6 0.00 0.00 0.00 48 1019.1
20260507090706 53 236 7.0 10.4 0.00 0.00 0.00 47 1019.0
20260507090203 53 286 7.0 10.4 0.00 0.00 0.00 47 1019.1
20260507085703 54 263 5.2 10.4 0.00 0.00 0.00 47 1018.9
20260507085204 54 267 5.2 9.6 0.00 0.00 0.00 47 1018.8
20260507085056 54 273 4.3 9.6 0.00 0.00 0.00 47 1018.9
20260507084203 54 261 4.3 9.6 0.00 0.00 0.00 47 1018.7
20260507084026 54 281 4.3 11.3 0.00 0.00 0.00 46 1018.5
20260507083854 54 242 5.2 11.3 0.00 0.00 0.00 46 1018.7
20260507082708 54 259 3.5 10.4 0.00 0.00 0.00 46 1018.6
20260507082208 55 263 3.5 7.0 0.00 0.00 0.00 46 1018.5
20260507081708 55 259 4.3 15.6 0.00 0.00 0.00 45 1018.5
20260507081206 55 273 7.8 15.6 0.00 0.00 0.00 45 1018.2
20260507080708 55 302 6.1 13.9 0.00 0.00 0.00 45 1018.1
20260507080210 55 267 7.0 13.9 0.00 0.00 0.00 44 1018.0
20260507075710 55 266 7.8 10.4 0.00 0.00 0.00 43 1017.9
20260507075207 55 281 7.0 11.3 0.00 0.00 0.00 43 1017.7
20260507074707 55 261 7.0 11.3 0.00 0.00 0.00 43 1017.6
20260507074205 56 264 7.0 11.3 0.00 0.00 0.00 43 1017.5
20260507073703 56 257 6.1 16.5 0.00 0.00 0.00 43 1017.5
20260507073654 56 254 7.0 16.5 0.00 0.00 0.00 42 1017.5
20260507072707 56 283 7.0 15.6 0.00 0.00 0.00 42 1017.4
20260507072205 56 281 7.0 14.8 0.00 0.00 0.00 42 1017.1
20260507071703 56 269 9.6 18.2 0.00 0.00 0.00 42 1017.3
20260507071203 56 246 7.8 18.2 0.00 0.00 0.00 41 1017.2
20260507070705 57 267 9.6 18.2 0.00 0.00 0.00 41 1017.1
20260507070209 57 269 9.6 22.6 0.00 0.00 0.00 40 1017.0
20260507065707 57 271 8.7 22.6 0.00 0.00 0.00 40 1017.1
20260507065208 58 180 9.6 16.5 0.00 0.00 0.00 39 1017.0
20260507064707 58 254 7.0 16.5 0.00 0.00 0.00 39 1016.8
20260507064205 58 236 11.3 16.5 0.00 0.00 0.00 39 1016.7
20260507063706 59 265 8.7 13.9 0.00 0.00 0.00 39 1016.8
20260507063204 59 245 6.1 13.9 0.00 0.00 0.00 38 1016.7
20260507062704 59 267 7.0 13.0 0.00 0.00 0.00 39 1016.8
20260507062203 59 218 7.0 19.1 0.00 0.00 0.00 38 1016.8
20260507061704 59 259 10.4 19.1 0.00 0.00 0.00 38 1016.7
20260507061203 60 250 9.6 20.9 0.00 0.00 0.00 37 1016.5
20260507060703 60 290 11.3 20.9 0.00 0.00 0.00 36 1016.5
20260507060207 60 244 7.8 16.5 0.00 0.00 0.00 36 1016.3
20260507060055 60 275 11.3 16.5 0.00 0.00 0.00 35 1016.2
20260507055208 61 265 7.8 15.6 0.00 0.00 0.00 35 1016.4
20260507054707 61 271 9.6 17.4 0.00 0.00 0.00 35 1016.4
20260507054213 61 256 8.7 23.5 0.00 0.00 0.00 34 1016.6
20260507054059 61 255 9.6 17.4 0.00 0.00 0.00 33 1016.3
20260507053909 61 229 11.3 23.5 0.00 0.00 0.00 34 1016.4
20260507052709 62 257 8.7 17.4 0.00 0.00 0.00 33 1016.2
20260507052207 62 233 7.0 15.6 0.00 0.00 0.00 34 1016.1
20260507051708 62 246 7.0 15.6 0.00 0.00 0.00 33 1016.1
20260507051206 62 265 11.3 16.5 0.00 0.00 0.00 33 1015.9
20260507050707 62 285 10.4 16.5 0.00 0.00 0.00 33 1016.0
20260507050207 62 293 7.0 17.4 0.00 0.00 0.00 33 1016.0
20260507045706 62 257 11.3 17.4 0.00 0.00 0.00 32 1016.0
20260507045206 62 243 8.7 14.8 0.00 0.00 0.00 32 1016.0
20260507045032 63 265 10.4 19.1 0.00 0.00 0.00 31 1015.8
20260507044843 62 253 7.0 19.1 0.00 0.00 0.00 32 1016.0
20260507043706 63 257 8.7 16.5 0.00 0.00 0.00 31 1015.8
20260507043212 63 216 8.7 15.6 0.00 0.00 0.00 31 1015.7
20260507042706 63 253 7.0 15.6 0.00 0.00 0.00 32 1015.7
20260507042552 63 217 7.0 19.1 0.00 0.00 0.00 32 1015.7
20260507041711 62 297 9.6 21.7 0.00 0.00 0.00 30 1015.6
20260507041206 63 258 11.3 21.7 0.00 0.00 0.00 31 1015.5
20260507040707 63 219 8.7 16.5 0.00 0.00 0.00 31 1015.4
20260507040206 63 289 8.7 15.6 0.00 0.00 0.00 32 1015.4
20260507035204 63 272 10.4 23.5 0.00 0.00 0.00 29 1015.1
20260507035106 63 219 11.3 15.6 0.00 0.00 0.00 29 1015.3
20260507034203 64 265 8.7 15.6 0.00 0.00 0.00 30 1015.1
20260507033707 64 230 7.8 15.6 0.00 0.00 0.00 30 1015.0
20260507033208 64 242 9.6 15.6 0.00 0.00 0.00 30 1015.0
20260507032707 64 298 7.8 15.6 0.00 0.00 0.00 30 1015.0
20260507032206 64 242 8.7 13.0 0.00 0.00 0.00 29 1015.1
20260507031708 64 286 6.1 15.6 0.00 0.00 0.00 29 1015.1
20260507031556 63 267 12.2 17.4 0.00 0.00 0.00 29 1015.2
20260507031056 64 273 9.6 17.4 0.00 0.00 0.00 28 1015.0
20260507030210 64 258 13.0 16.5 0.00 0.00 0.00 28 1015.0
20260507025710 64 236 8.7 13.0 0.00 0.00 0.00 31 1015.0
20260507025622 64 279 6.1 17.4 0.00 0.00 0.00 32 1015.0
20260507024711 64 244 7.0 17.4 0.00 0.00 0.00 32 1014.8
20260507024203 64 246 8.7 14.8 0.00 0.00 0.00 31 1014.9
20260507023702 64 256 7.0 20.0 0.00 0.00 0.00 31 1014.9
20260507023220 63 288 7.0 20.9 0.00 0.00 0.00 31 1015.1
20260507022702 63 279 12.2 20.9 0.00 0.00 0.00 32 1015.0
20260507022209 63 248 9.6 15.6 0.00 0.00 0.00 32 1015.0
20260507021712 63 258 9.6 15.6 0.00 0.00 0.00 33 1015.2
20260507021206 63 222 11.3 21.7 0.00 0.00 0.00 32 1015.1
20260507020703 63 244 11.3 21.7 0.00 0.00 0.00 31 1015.1
20260507020223 63 232 12.2 20.9 0.00 0.00 0.00 31 1015.0
20260507015707 63 225 10.4 21.7 0.00 0.00 0.00 31 1015.2
20260507015208 63 281 12.2 21.7 0.00 0.00 0.00 32 1015.1
20260507014708 63 261 7.8 13.9 0.00 0.00 0.00 39 1015.0
20260507014212 62 275 9.6 18.2 0.00 0.00 0.00 44 1015.2
20260507013708 61 229 9.6 18.2 0.00 0.00 0.00 46 1015.1
20260507013207 60 283 11.3 15.6 0.00 0.00 0.00 51 1015.0
20260507012707 59 240 7.0 13.0 0.00 0.00 0.00 55 1015.4
20260507012210 59 236 5.2 13.0 0.00 0.00 0.00 56 1015.5
20260507011707 59 229 6.1 12.2 0.00 0.00 0.00 55 1015.5
20260507011206 59 254 7.0 15.6 0.00 0.00 0.00 56 1015.5
20260507010702 60 235 7.0 15.6 0.00 0.00 0.00 56 1015.5
20260507010204 60 225 5.2 15.6 0.00 0.00 0.00 56 1015.6
20260507005705 61 227 8.7 15.6 0.00 0.00 0.00 54 1015.5
20260507005204 62 266 8.7 20.9 0.00 0.00 0.00 53 1015.1
20260507004704 64 169 7.0 20.9 0.00 0.00 0.00 53 1015.2
20260507004203 65 251 5.2 10.4 0.00 0.00 0.00 55 1014.8
20260507003705 65 248 2.6 10.4 0.00 0.00 0.00 55 1014.9
20260507003204 65 233 4.3 10.4 0.00 0.00 0.00 55 1014.7
20260507003149 65 296 4.3 8.7 0.00 0.00 0.00 57 1014.6
20260507002204 64 260 4.3 10.4 0.00 0.00 0.00 57 1014.6
20260507002106 64 296 6.1 10.4 0.00 0.00 0.00 57 1014.6
20260507001202 64 266 2.6 10.4 0.00 0.00 0.00 59 1014.6
20260507001056 63 277 7.8 10.4 0.00 0.00 0.00 57 1014.6
20260507000205 63 275 5.2 8.7 0.00 0.00 0.00 58 1014.8
20260507000107 63 286 5.2 8.7 0.00 0.00 0.00 58 1014.9
20260506235203 62 304 5.2 9.6 0.00 0.00 0.00 59 1014.9
20260506234901 62 303 6.1 9.6 0.00 0.00 0.00 58 1014.9
20260506234855 62 268 2.6 9.6 0.00 0.00 0.00 59 1014.8
20260506234751 63 286 4.3 9.6 0.00 0.00 0.00 58 1014.9
20260506233557 61 298 4.3 7.8 0.00 0.00 0.00 61 1014.8
20260506232710 61 314 4.3 8.7 0.00 0.00 0.00 60 1014.8
20260506232208 61 296 3.5 8.7 0.00 0.00 0.00 61 1014.8
20260506231708 61 302 3.5 10.4 0.00 0.00 0.00 61 1014.9
20260506231208 61 288 5.2 10.4 0.00 0.00 0.00 61 1014.8
20260506230708 61 259 5.2 7.8 0.00 0.00 0.00 62 1014.8
20260506230206 61 281 3.5 7.8 0.00 0.00 0.00 63 1014.9
20260506225706 60 321 2.6 7.0 0.00 0.00 0.00 65 1015.0
20260506225208 60 272 3.5 7.0 0.00 0.00 0.00 65 1015.0
20260506224709 59 304 1.7 7.8 0.00 0.00 0.00 66 1014.9
20260506224205 59 288 3.5 7.8 0.00 0.00 0.00 67 1014.9
20260506223706 58 277 5.2 7.8 0.00 0.00 0.00 68 1014.9
20260506223207 58 309 3.5 7.0 0.00 0.00 0.00 69 1015.0
20260506222705 57 279 3.5 7.0 0.00 0.00 0.00 70 1015.0
20260506222206 57 297 2.6 6.1 0.00 0.00 0.00 71 1015.0
20260506221711 56 319 3.5 5.2 0.00 0.00 0.00 72 1015.0
20260506221204 56 295 1.7 5.2 0.00 0.00 0.00 74 1015.0
20260506221059 55 310 1.7 5.2 0.00 0.00 0.00 76 1014.8
20260506220204 54 289 1.7 5.2 0.00 0.00 0.00 78 1015.0
20260506215708 54 285 1.7 5.2 0.00 0.00 0.00 80 1014.9
20260506215206 53 290 2.6 5.2 0.00 0.00 0.00 80 1014.8
20260506215110 53 297 2.6 6.1 0.00 0.00 0.00 81 1014.8
20260506214202 52 279 3.5 6.1 0.00 0.00 0.00 82 1014.7
20260506213702 52 284 2.6 5.2 0.00 0.00 0.00 83 1014.7
20260506213549 51 306 1.7 5.2 0.00 0.00 0.00 84 1014.7
20260506212708 51 274 1.7 4.3 0.00 0.00 0.00 84 1014.7
20260506212212 50 307 2.6 4.3 0.00 0.00 0.00 85 1014.6
20260506211703 50 322 1.7 4.3 0.00 0.00 0.00 85 1014.5
20260506211207 50 282 0.9 4.3 0.00 0.00 0.00 86 1014.4
20260506210704 50 279 1.7 3.5 0.00 0.00 0.00 86 1014.6
20260506210204 50 292 1.7 3.5 0.00 0.00 0.00 86 1014.6
20260506205720 50 294 2.6 3.5 0.00 0.00 0.00 86 1014.4
20260506205206 50 271 1.7 3.5 0.00 0.00 0.00 87 1014.4
20260506205058 50 288 1.7 3.5 0.00 0.00 0.00 87 1014.4
20260506204204 50 290 1.7 2.6 0.00 0.00 0.00 87 1014.4
20260506203708 50 298 0.0 4.3 0.00 0.00 0.00 88 1014.4
20260506203208 50 273 0.9 4.3 0.00 0.00 0.00 88 1014.3
20260506202709 50 321 1.7 4.3 0.00 0.00 0.00 88 1014.4
20260506202208 50 304 0.9 3.5 0.00 0.00 0.00 88 1014.3
20260506202051 50 303 1.7 3.5 0.00 0.00 0.00 89 1014.3
20260506201202 50 292 1.7 5.2 0.00 0.00 0.00 89 1014.3
20260506200703 50 290 0.9 5.2 0.00 0.00 0.00 89 1014.3
20260506200203 50 281 0.0 3.5 0.00 0.00 0.00 90 1014.4
20260506195703 50 281 1.7 3.5 0.00 0.00 0.00 89 1014.3
20260506195205 50 271 1.7 2.6 0.00 0.00 0.00 89 1014.5
20260506194704 50 270 1.7 2.6 0.00 0.00 0.00 89 1014.6
20260506194204 50 266 1.7 2.6 0.00 0.00 0.00 90 1014.7
20260506193703 50 275 0.9 2.6 0.00 0.00 0.00 90 1014.6
20260506193202 50 260 1.7 2.6 0.00 0.00 0.00 90 1014.5
20260506192658 50 258 0.9 2.6 0.00 0.00 0.00 89 1014.5
20260506192158 50 241 1.7 2.6 0.00 0.00 0.00 89 1014.3
20260506191653 51 251 0.9 2.6 0.00 0.00 0.00 90 1014.3
20260506191150 51 265 1.7 2.6 0.00 0.00 0.00 89 1014.4
20260506190647 51 281 0.0 0.0 0.00 0.00 0.00 89 1014.2
20260506190145 51 281 0.0 0.0 0.00 0.00 0.00 89 1014.1
20260506185648 51 281 0.0 0.0 0.00 0.00 0.00 89 1013.9
20260506185145 51 281 0.0 0.0 0.00 0.00 0.00 90 1013.9
20260506184643 52 281 0.0 0.0 0.00 0.00 0.00 90 1013.7
20260506184145 52 281 0.0 0.0 0.00 0.00 0.00 90 1013.7
20260506183641 52 281 0.0 0.9 0.00 0.00 0.00 90 1013.6
20260506183141 52 281 0.0 0.9 0.00 0.00 0.00 90 1013.7
20260506182638 52 281 0.0 1.7 0.00 0.00 0.00 90 1013.5
20260506182617 52 281 0.9 2.6 0.00 0.00 0.00 90 1013.6
20260506182031 52 281 0.9 2.6 0.00 0.00 0.00 90 1013.6
20260506181146 52 277 0.9 2.6 0.00 0.00 0.00 90 1013.7
20260506181023 53 270 1.7 3.5 0.00 0.00 0.00 90 1013.7
20260506180138 53 271 0.9 3.5 0.00 0.00 0.00 90 1013.6
20260506175634 53 266 1.7 3.5 0.00 0.00 0.00 90 1013.7
20260506175131 53 273 1.7 3.5 0.00 0.00 0.00 90 1013.7
20260506174631 53 274 1.7 3.5 0.00 0.00 0.00 90 1013.8
20260506174130 53 272 1.7 3.5 0.00 0.00 0.00 90 1013.7
20260506174018 53 267 1.7 3.5 0.00 0.00 0.00 90 1013.8
20260506173135 53 273 0.9 2.6 0.00 0.00 0.00 89 1013.9
20260506172634 53 273 0.9 1.7 0.00 0.00 0.00 90 1014.0
20260506172135 53 275 0.9 1.7 0.00 0.00 0.00 90 1014.1
20260506171634 54 280 0.9 1.7 0.00 0.00 0.00 90 1014.1
20260506170645 54 273 0.9 2.6 0.00 0.00 0.00 89 1014.1
20260506170131 54 272 1.7 2.6 0.00 0.00 0.00 89 1014.1
20260506165632 54 274 1.7 2.6 0.00 0.00 0.00 89 1014.0
20260506165133 54 270 1.7 3.5 0.00 0.00 0.00 90 1014.1
20260506164955 54 269 1.7 3.5 0.00 0.00 0.00 90 1014.3
20260506164131 54 281 1.7 2.6 0.00 0.00 0.00 89 1014.3
20260506163633 54 277 1.7 3.5 0.00 0.00 0.00 89 1014.5
20260506163132 55 275 1.7 3.5 0.00 0.00 0.00 89 1014.6
20260506163016 55 273 1.7 3.5 0.00 0.00 0.00 89 1014.7
20260506162133 55 263 1.7 3.5 0.00 0.00 0.00 89 1014.6
20260506161632 55 265 1.7 2.6 0.00 0.00 0.00 89 1014.7
20260506161132 55 267 1.7 2.6 0.00 0.00 0.00 89 1014.7
20260506160628 55 275 0.9 2.6 0.00 0.00 0.00 89 1014.7
20260506160120 56 259 0.9 2.6 0.00 0.00 0.00 90 1015.0
20260506155621 56 272 0.0 2.6 0.00 0.00 0.00 89 1014.9
20260506155116 56 275 1.7 2.6 0.00 0.00 0.00 89 1014.9
20260506154617 56 275 0.0 1.7 0.00 0.00 0.00 90 1014.8
20260506154519 56 275 0.9 2.6 0.00 0.00 0.00 89 1014.9
20260506153607 56 275 1.7 2.6 0.00 0.00 0.00 89 1014.8
20260506153107 57 283 0.9 1.7 0.00 0.00 0.00 89 1015.0
20260506152951 57 271 0.0 0.0 0.00 0.00 0.00 89 1015.0
20260506152109 57 271 0.0 0.0 0.00 0.00 0.00 89 1015.1
20260506151950 57 271 0.0 0.0 0.00 0.00 0.00 89 1015.1
20260506151103 58 271 0.0 0.0 0.00 0.00 0.00 89 1015.3
20260506150955 58 271 0.0 0.0 0.00 0.00 0.00 89 1015.3
20260506145606 58 271 0.0 1.7 0.00 0.00 0.00 89 1015.2
20260506145103 58 271 0.0 2.6 0.00 0.00 0.00 89 1015.3
20260506144602 58 271 0.0 2.6 0.00 0.00 0.00 89 1015.3
20260506144102 58 260 0.9 1.7 0.00 0.00 0.00 89 1015.4
20260506143605 59 238 0.0 1.7 0.00 0.00 0.00 89 1015.4
20260506143104 59 238 0.0 1.7 0.00 0.00 0.00 89 1015.4
20260506142606 59 238 0.9 1.7 0.00 0.00 0.00 90 1015.3
20260506142200 59 263 0.0 0.9 0.00 0.00 0.00 90 1015.5
20260506142134 59 263 0.0 0.0 0.00 0.00 0.00 90 1015.5
20260506141109 59 263 0.0 2.6 0.00 0.00 0.00 90 1015.4
20260506140057 59 268 1.7 3.5 0.00 0.00 0.00 90 1015.3
20260506135554 60 276 1.7 3.5 0.00 0.00 0.00 90 1015.3
20260506135055 60 310 1.7 3.5 0.00 0.00 0.00 90 1015.4
20260506134554 60 276 1.7 3.5 0.00 0.00 0.00 90 1015.3
20260506134445 60 292 1.7 3.5 0.00 0.00 0.00 90 1015.4
20260506133551 60 315 0.9 4.3 0.00 0.00 0.00 90 1015.4
20260506133046 60 305 1.7 5.2 0.00 0.00 0.00 90 1015.3
20260506132550 60 311 0.9 5.2 0.00 0.00 0.00 90 1015.4
20260506132052 60 338 2.6 4.3 0.00 0.00 0.00 90 1015.6
20260506131547 59 297 1.7 4.3 0.00 0.00 0.00 90 1015.6
20260506131043 59 335 1.7 5.2 0.00 0.00 0.00 90 1015.6
20260506130931 59 333 1.7 5.2 0.00 0.00 0.00 90 1015.7
20260506130036 59 333 1.7 3.5 0.00 0.00 0.00 89 1015.8
20260506125531 59 317 1.7 2.6 0.00 0.00 0.00 89 1015.7
20260506125031 59 302 0.0 1.7 0.00 0.00 0.00 89 1015.8
20260506124530 59 290 0.0 1.7 0.00 0.00 0.00 89 1016.0
20260506124034 59 290 0.9 3.5 0.00 0.00 0.00 89 1016.0
20260506123533 60 298 1.7 3.5 0.00 0.00 0.00 89 1016.1
20260506123035 59 296 0.9 3.5 0.00 0.00 0.00 89 1016.2
20260506122957 59 282 1.7 3.5 0.00 0.00 0.00 88 1016.4
20260506122036 59 268 0.9 2.6 0.00 0.00 0.00 88 1016.5
20260506121918 60 273 0.9 2.6 0.00 0.00 0.00 88 1016.5
20260506121034 60 264 0.9 2.6 0.00 0.00 0.00 87 1016.4
20260506120538 60 232 0.9 1.7 0.00 0.00 0.00 87 1016.5
20260506120031 60 240 0.9 1.7 0.00 0.00 0.00 87 1016.5
20260506115531 60 351 0.0 1.7 0.00 0.00 0.00 87 1016.5
20260506115054 60 351 0.0 0.9 0.00 0.00 0.00 87 1016.6
20260506114528 60 351 0.0 0.0 0.00 0.00 0.00 87 1016.7
20260506114027 60 351 0.0 0.9 0.00 0.00 0.00 87 1016.8
20260506113525 60 351 0.0 0.9 0.00 0.00 0.00 87 1016.7
20260506113028 60 351 0.0 1.7 0.00 0.00 0.00 87 1016.7
20260506112516 61 351 0.0 1.7 0.00 0.00 0.00 87 1016.7
20260506112024 61 351 0.0 0.9 0.00 0.00 0.00 86 1016.8
20260506111512 61 351 0.0 0.0 0.00 0.00 0.00 86 1017.0
20260506111010 61 351 0.0 0.9 0.00 0.00 0.00 86 1017.0
20260506110818 61 351 0.0 0.9 0.00 0.00 0.00 86 1016.9
20260506110648 61 351 0.0 0.9 0.00 0.00 0.00 86 1016.9
20260506105508 61 351 0.0 0.9 0.00 0.00 0.00 86 1017.0
20260506105006 61 344 0.0 0.0 0.00 0.00 0.00 86 1017.1
20260506104510 61 344 0.0 0.0 0.00 0.00 0.00 85 1017.1
20260506104018 61 344 0.0 1.7 0.00 0.00 0.00 85 1017.0
20260506103528 61 344 0.0 2.6 0.00 0.00 0.00 85 1017.0
20260506103003 62 321 1.7 2.6 0.00 0.00 0.00 85 1017.1
20260506102505 62 351 0.9 2.6 0.00 0.00 0.00 85 1017.1
20260506102013 62 333 0.9 2.6 0.00 0.00 0.00 84 1017.2